Regional Weather Roundup
Issued by NWS Green Bay, WI

Home | Current Version | Previous Version | Text Only | Print | Product List | Glossary On
Versions: 1 2 3 4 5 6 7 8 9 10 11 12 13 14 15 16 17 18 19 20 21 22 23 24 25 26 27 28 29 30 31 32 33 34 35 36 37 38 39 40 41 42 43 44 45 46 47 48 49 50
696
ASUS43 KGRB 261611
RWRGRB

NORTH-CENTRAL AND NORTHEAST WISCONSIN REGIONAL WEATHER ROUNDUP
NATIONAL WEATHER SERVICE GREEN BAY WI
1100 AM CDT WED APR 26 2017

WIZ005-009-010>012-018-019-261700-
NORTH CENTRAL WISCONSIN

CITY           SKY/WX    TMP DP  RH WIND       PRES   REMARKS
IRONWOOD       LGT SNOW  33  32  96 NE6       29.50S FOG
MANITOWISH WTR DRIZZLE   34  34 100 N7        29.43F
ARBOR VITAE    RAIN      39  38  95 NE6       29.41F
EAGLE RIVER    LGT RAIN  41  41 100 NE8       29.41F
LAND O LAKES   RAIN      37  37 100 NE6       29.45F
RHINELANDER    LGT RAIN  49  49 100 NE5       29.39F
PHILLIPS       HVY RAIN  36  36 100 N9        29.43R
ANTIGO         CLOUDY    51  51 100 E6        29.38F FOG
TOMAHAWK       DRIZZLE   48  47  97 N3        29.38F
MERRILL        RAIN      53  53 100 E6        29.37F
$$

WIZ013-073-261700-
NORTHEAST WISCONSIN

CITY           SKY/WX    TMP DP  RH WIND       PRES   REMARKS
IRON MOUNTAIN  LGT RAIN  52  49  89 E6        29.41F FOG
MARINETTE      PTSUNNY   54  49  83 SE6       29.42F
OCONTO         PTSUNNY   62  54  75 SE6       29.39F
$$

WIZ017-030-035>037-045-261700-
CENTRAL WISCONSIN

CITY           SKY/WX    TMP DP  RH WIND       PRES   REMARKS
MEDFORD        LGT RAIN  49  48  97 N7        29.37S
WAUSAU         LGT RAIN  54  53  97 E7        29.34F FOG
MOSINEE        RAIN      54  54 100 E7        29.36F
MARSHFIELD     LGT RAIN  56  54  93 E5        29.35S FOG
WISC RAPIDS    LGT RAIN  59  58  96 S7        29.38R FOG
STEVENS POINT  RAIN      55  55 100 S3        29.37S
WAUPACA        LGT RAIN  59  58  97 E3        29.37S
SHAWANO        CLOUDY    56  54  91 E7        29.38F
CLINTONVILLE   HVY RAIN  54  54 100 CALM      29.39S
WAUTOMA        RAIN      59  58  96 S8        29.38R
$$

WIZ038-039-048-051-261700-
FOX VALLEY

CITY           SKY/WX    TMP DP  RH WIND       PRES   REMARKS
NWS GREEN BAY  CLOUDY    64  58  80 S10       29.39S
APPLETON       CLOUDY    63  54  72 SE7       30.36R
OSHKOSH        LGT RAIN  63  57  81 S8        29.36F
FOND DU LAC    RAIN      63  56  78 S9        29.37F
$$

WIZ022-050-052-261700-
EAST CENTRAL WISCONSIN

CITY           SKY/WX    TMP DP  RH WIND       PRES   REMARKS
EPHRAIM        FAIR      65  56  72 S17G23    29.43R
WASHINGTON ISL FAIR      61  52  72 SE12      29.44F
STURGEON BAY   FAIR      58  52  80 S21G30    29.40F
MANITOWOC      CLOUDY    52  47  83 SE10      29.40F
SHEBOYGAN      CLOUDY    55  51  86 S8        29.40F FOG
$$

LMZ563-521-522-541>543-261700-
LAKESHORE

STATION/POSITION TIME  TEMP    WIND        PRES    VSBY  WAVE
                       AIR SEA DIR/SP/G                  HT/PER
                 (UTC) (F)     (DEG/KT/KT) (MB)    (MI)  (FT/S)
SHEBOYGAN LKSHOR 1600   45     170/ 11/ 12  995.9F
KEWAUNEE LKSHORE 1548   48     170/  7/  9  995.8F
NORTHPORT PIER   1540   47     140/  5/  8  997.3F
N MID LAKE BUOY  1550   44 37  100/  8/ 10  998.4F         2/ 5
CHAMBERS ISLAND  1540   46     320/  5/ 10  996.6F
MENOMINEE LKSHOR 1548   47      60/  7/  8  995.6F
$$




USA.gov is the U.S. government's official web portal to all federal, state and local government web resources and services.